Regional Weather Roundup
Issued by NWS Green Bay, WI

Home | Current Version | Previous Version | Graphics & Text | Print | Product List | Glossary Off
Versions: 1 2 3 4 5 6 7 8 9 10 11 12 13 14 15 16 17 18 19 20 21 22 23 24 25 26 27 28 29 30 31 32 33 34 35 36 37 38 39 40 41 42 43 44 45 46 47 48 49 50

000
ASUS43 KGRB 281910
RWRGRB

NORTH-CENTRAL AND NORTHEAST WISCONSIN REGIONAL WEATHER ROUNDUP
NATIONAL WEATHER SERVICE GREEN BAY WI
200 PM CDT MON JUL 28 2014

WIZ005-009-010>012-018-019-282000-
NORTH CENTRAL WISCONSIN

CITY           SKY/WX    TMP DP  RH WIND       PRES   REMARKS
IRONWOOD       NOT AVBL
MANITOWISH WTR CLOUDY    68  50  53 N12G18    30.12F
ARBOR VITAE    PTSUNNY   72  49  44 N14G21    30.12S
EAGLE RIVER    CLOUDY    66  46  48 N12G23    30.10F
LAND O LAKES   CLOUDY    67  49  52 NW10      30.11F
RHINELANDER    PTSUNNY   68  49  50 N8G18     30.12F
PHILLIPS       PTSUNNY   69  52  55 NW6       30.13S
ANTIGO         PTSUNNY   69  50  50 N16G22    30.10S
TOMAHAWK       PTSUNNY   68  50  51 NW7G17    30.12F
MERRILL        PTSUNNY   69  51  52 N14       30.11S
$$

WIZ013-073-282000-
NORTHEAST WISCONSIN

CITY           SKY/WX    TMP DP  RH WIND       PRES   REMARKS
IRON MOUNTAIN  CLOUDY    70  46  42 N13       30.05S
MARINETTE      PTSUNNY   66  50  55 S13       30.04F
OCONTO         SUNNY     65  51  61 S8        30.05F
$$

WIZ017-030-035>037-045-282000-
CENTRAL WISCONSIN

CITY           SKY/WX    TMP DP  RH WIND       PRES   REMARKS
MEDFORD        CLOUDY    66  52  61 NW10      30.14S
WAUSAU         PTSUNNY   71  49  45 N13G26    30.09S
MOSINEE        PTSUNNY   72  50  46 NW14G20   30.12F
MARSHFIELD     PTSUNNY   72  50  45 NW15      30.12F
WISC RAPIDS    CLOUDY    72  49  44 NW14G24   30.12F
STEVENS POINT  CLOUDY    68  49  50 NW12      30.11S
WAUPACA        PTSUNNY   74  48  40 NW10G16   30.09S
SHAWANO        CLOUDY    73  51  46 N7G16     30.06F
CLINTONVILLE   PTSUNNY   72  46  40 N13G18    30.06F
$$

WIZ038-039-048-051-282000-
FOX VALLEY

CITY           SKY/WX    TMP DP  RH WIND       PRES   REMARKS
NWS GREEN BAY  PTSUNNY   71  53  52 W5        30.06F
APPLETON       PTSUNNY   70  52  52 NW9       30.09F
OSHKOSH        MOSUNNY   71  52  50 NW10      30.08F
FOND DU LAC    MOSUNNY   71  50  47 NW10G17   30.09F
$$

WIZ022-050-052-282000-
EAST CENTRAL WISCONSIN

CITY           SKY/WX    TMP DP  RH WIND       PRES   REMARKS
STURGEON BAY   SUNNY     64  46  52 W5        30.07F
MANITOWOC      SUNNY     66  49  54 VRB3      30.08F
SHEBOYGAN      SUNNY     65  50  58 NE7       30.08F
$$

LMZ563-521-522-541>543-282000-
LAKESHORE

STATION/POSITION TIME  TEMP    WIND        PRES    VSBY  WAVE
                       AIR SEA DIR/SP/G                  HT/PER
                 (UTC) (F)     (DEG/KT/KT) (MB)    (MI)  (FT/S)
SHEBOYGAN LKSHOR 1900   56      10/  7/  8 1019.0F
KEWAUNEE LKSHORE 1900   57      70/  5/  5 1019.4S
NORTHPORT PIER   1900   64     320/  4/  9 1017.6F
N MID LAKE BUOY  1900   55 53  250/  6/  8 1017.1F         1/ 4
S GREEN BAY BUOY 1900   61 67  170/  6     1018.8F
SISTER BAY LKSHO 1800   64     360/  7/  8   N/A
STURGEON BAY CG  1800   57 64  110/  4     1018.8      6   1
CHAMBERS ISLAND  1900   67     300/  3/  6 1017.6F
MENOMINEE LKSHOR 1900   60     160/ 11/ 12 1018.3F
$$


USA.gov is the U.S. government's official web portal to all federal, state and local government web resources and services.